This is the latest recevied weather packets stored in our database for station/object JE7UPL-13. If no packets are shown the sender has not sent any weather packets the latest 10 day(s).
| Time | Temp. | Humidity | Pressure | Rain* | Wind** | Luminosity | Snow |
|---|---|---|---|---|---|---|---|
| 1777986905 | 15° C | 29% | 1012.6 hPa | 0 mm | - | - | - |
| 1777986005 | 15° C | 29% | 1012.5 hPa | 0 mm | - | - | - |
| 1777985105 | 15° C | 31% | 1012.2 hPa | 0 mm | - | - | - |
| 1777984206 | 14.44° C | 33% | 1012.3 hPa | 0 mm | - | - | - |
| 1777983305 | 14.44° C | 36% | 1012.6 hPa | 0 mm | - | - | - |
| 1777982405 | 14.44° C | 39% | 1012.9 hPa | 0 mm | - | - | - |
| 1777981505 | 14.44° C | 41% | 1013.1 hPa | 0 mm | - | - | - |
| 1777980606 | 14.44° C | 42% | 1012.9 hPa | 0 mm | - | - | - |
| 1777979705 | 14.44° C | 50% | 1012.9 hPa | 0 mm | - | - | - |
| 1777978805 | 14.44° C | 53% | 1012.8 hPa | 0 mm | - | - | - |
| 1777977905 | 14.44° C | 55% | 1012.4 hPa | 0 mm | - | - | - |
| 1777977005 | 14.44° C | 55% | 1012 hPa | 0 mm | - | - | - |
| 1777976105 | 15° C | 54% | 1011.7 hPa | 0 mm | - | - | - |
| 1777975206 | 15° C | 53% | 1011.6 hPa | 0 mm | - | - | - |
| 1777974305 | 15.56° C | 52% | 1011.6 hPa | 0 mm | - | - | - |
| 1777973406 | 15.56° C | 52% | 1011.6 hPa | 0 mm | - | - | - |
| 1777972505 | 16.67° C | 50% | 1012 hPa | 0 mm | - | - | - |
| 1777971605 | 17.22° C | 47% | 1011.9 hPa | 0 mm | - | - | - |
| 1777970705 | 17.22° C | 43% | 1012 hPa | 0 mm | - | - | - |
| 1777969805 | 17.78° C | 42% | 1011.8 hPa | 0 mm | - | - | - |
| 1777968905 | 17.78° C | 41% | 1011.9 hPa | 0 mm | - | - | - |
| 1777968005 | 18.33° C | 42% | 1011.9 hPa | 0 mm | - | - | - |
| 1777967105 | 18.89° C | 38% | 1011.8 hPa | 0 mm | - | - | - |
| 1777966205 | 18.33° C | 39% | 1011.7 hPa | 0 mm | - | - | - |
| 1777965305 | 18.89° C | 39% | 1011.6 hPa | 0 mm | - | - | - |
* Rain latest hour (hover to see other rain measurements)
** Current wind speed in m/s (hover to see current wind gust speed)